Total_Precipitation_Accumulation
3.03 3.01 3.46 4.35 5.19 4.75 4.20 3.37 2.82 2.65 2.25 1.77 1.35 1.30 1.64 2.17 2.80 3.39 3.58 3.28 2.27 1.83 2.00 3.00 3.90 3.57 3.10 2.69 2.40 2.40 2.41 2.55 2.60 2.63 2.49 2.25 2.08 2.02 1.89 1.76 1.83 1.78 1.64 1.54 1.49 1.62 1.72 1.68 1.83
2.31 3.18 4.07 5.08 4.89 4.24 3.94 3.36 3.04 2.47 1.79 1.44 1.06 0.95 1.06 1.20 1.26 2.02 3.37 3.18 2.01 1.67 1.82 2.26 3.21 3.13 2.71 2.51 2.42 2.49 2.52 2.66 2.67 2.56 2.39 2.21 2.14 2.11 1.95 1.89 2.01 1.84 1.75 1.63 1.57 1.70 1.85 1.77 1.83
2.41 3.57 4.62 4.99 3.95 3.70 3.79 3.43 2.76 1.99 1.45 1.35 1.14 0.96 1.19 1.56 1.61 2.29 3.10 2.37 1.71 1.60 1.79 2.47 3.20 2.95 2.59 2.40 2.61 2.78 2.76 2.74 2.60 2.41 2.25 2.19 2.19 2.16 2.12 2.11 2.18 1.95 1.85 1.68 1.59 1.68 1.74 1.73 1.77
2.80 4.00 4.26 4.05 3.41 3.00 3.06 2.98 2.31 1.86 1.43 1.04 1.04 1.08 1.16 1.61 1.69 2.02 2.05 1.70 1.47 1.63 1.82 2.43 3.13 2.89 2.64 2.46 2.73 2.87 2.88 2.92 2.79 2.52 2.28 2.19 2.11 2.10 2.08 2.13 2.05 2.00 1.95 1.72 1.59 1.66 1.74 1.75 1.75
3.29 4.24 4.17 3.60 3.17 2.83 2.49 2.11 1.87 1.82 1.47 1.10 0.96 1.27 1.71 2.11 1.85 1.70 1.65 1.54 1.36 1.49 1.57 1.93 2.78 2.89 2.69 2.60 2.84 2.92 2.97 3.12 3.03 2.75 2.56 2.32 2.13 2.11 2.10 2.15 2.01 1.96 1.98 1.96 1.86 1.80 1.81 1.82 1.83
3.60 3.74 4.07 3.56 3.15 2.92 2.74 2.01 1.78 1.77 1.39 1.09 1.04 1.36 2.20 2.62 2.20 1.86 1.62 1.68 1.58 1.57 1.51 1.60 2.41 2.76 2.74 2.77 2.84 2.80 2.80 2.88 2.91 2.68 2.49 2.25 2.09 2.08 2.21 2.28 2.11 2.08 1.94 1.88 1.94 1.94 1.97 2.00 1.98
3.56 3.69 3.78 3.12 3.06 3.28 2.82 1.96 1.81 1.73 1.63 1.32 0.98 1.52 2.35 2.86 2.43 1.95 1.75 1.74 1.80 1.71 1.66 1.61 1.85 2.23 2.60 2.74 2.62 2.57 2.56 2.54 2.64 2.50 2.39 2.21 2.13 2.10 2.19 2.24 2.16 2.19 2.18 2.15 2.22 2.35 2.28 2.20 2.26
2.62 3.01 3.08 2.99 3.10 3.30 2.43 1.81 1.49 1.47 1.46 1.10 0.91 1.52 2.28 2.32 2.08 1.98 1.97 2.06 2.16 1.93 1.79 1.63 1.64 1.73 1.84 2.11 2.32 2.48 2.53 2.47 2.53 2.34 2.15 2.02 2.03 2.07 2.19 2.19 2.18 2.30 2.33 2.36 2.56 2.72 2.64 2.72 2.64
2.36 3.15 3.46 3.43 3.13 2.64 1.72 1.58 1.35 1.13 1.21 1.05 0.86 0.99 1.33 1.53 1.68 1.92 1.97 2.02 2.10 1.80 1.66 1.69 1.67 1.68 1.75 1.75 1.82 2.16 2.30 2.33 2.21 2.11 2.00 1.84 1.61 1.55 1.75 1.91 2.35 2.62 2.79 2.72 2.73 2.62 2.49 2.40 2.25
2.41 3.29 3.25 2.57 2.22 1.95 1.43 1.33 1.20 1.24 1.29 1.21 1.02 1.01 1.17 1.39 1.73 1.92 1.82 1.80 1.70 1.60 1.51 1.51 1.50 1.60 1.66 1.52 1.76 2.07 1.87 1.78 1.55 1.56 1.46 1.55 1.49 1.46 1.26 1.48 2.05 2.35 2.45 2.45 2.46 2.37 2.11 1.81 1.53
1.89 2.47 2.21 1.92 1.69 1.44 1.29 1.30 1.15 1.22 1.44 1.28 1.11 1.18 1.47 1.69 1.88 1.78 1.64 1.63 1.46 1.40 1.34 1.21 1.25 1.28 1.42 1.59 1.84 2.12 2.16 1.96 1.71 1.45 1.36 1.43 1.39 1.33 1.19 1.21 1.40 1.57 1.63 1.51 1.54 1.56 1.42 1.33 1.27
1.61 1.58 1.55 1.73 1.48 1.42 1.29 1.22 1.23 1.22 1.28 1.12 0.95 1.03 1.27 1.54 1.77 1.70 1.55 1.46 1.20 1.17 1.28 1.05 0.94 1.07 1.23 1.33 1.47 1.71 1.76 1.68 1.56 1.36 1.26 1.36 1.43 1.34 1.28 1.28 1.32 1.33 1.29 1.32 1.32 1.40 1.36 1.19 1.10
1.97 1.69 1.42 1.38 1.38 1.44 1.26 1.20 1.18 1.17 1.06 0.94 0.89 1.07 1.22 1.29 1.45 1.45 1.46 1.40 1.25 1.20 1.24 1.11 0.95 0.92 0.98 1.05 1.15 1.25 1.41 1.48 1.49 1.46 1.27 1.28 1.42 1.41 1.37 1.30 1.33 1.21 1.11 1.17 1.26 1.31 1.36 1.27 1.12
1.87 1.62 1.58 1.55 1.44 1.41 1.40 1.15 1.15 1.38 1.05 0.92 1.00 1.11 1.11 1.11 1.13 1.29 1.34 1.34 1.26 1.19 1.24 1.16 1.03 1.01 1.01 0.96 0.94 0.93 1.06 1.24 1.35 1.39 1.30 1.31 1.41 1.44 1.49 1.40 1.32 1.25 1.18 1.20 1.38 1.35 1.37 1.36 1.29
1.80 1.96 1.86 1.73 1.57 1.50 1.41 1.56 1.45 1.33 1.09 1.02 1.10 1.05 1.02 1.00 1.00 1.15 1.18 1.15 1.16 1.25 1.27 1.22 1.15 1.16 1.14 1.06 1.01 0.86 0.89 0.99 1.15 1.32 1.32 1.37 1.32 1.27 1.35 1.36 1.28 1.25 1.26 1.29 1.34 1.37 1.45 1.38 1.28
2.04 2.32 2.48 2.07 1.71 1.44 1.47 2.02 1.82 1.45 1.17 1.18 1.14 1.05 1.01 0.98 0.96 1.00 1.03 1.07 1.07 1.12 1.26 1.35 1.24 1.25 1.23 1.22 1.19 1.10 1.09 1.15 1.25 1.44 1.41 1.37 1.40 1.36 1.38 1.40 1.34 1.34 1.36 1.36 1.40 1.47 1.47 1.44 1.42
2.19 2.25 2.14 1.97 1.58 1.31 1.34 1.73 1.71 1.49 1.23 1.11 1.08 1.03 0.94 0.85 0.85 0.83 0.82 0.86 0.95 1.00 1.10 1.25 1.35 1.41 1.36 1.34 1.42 1.48 1.47 1.47 1.50 1.58 1.49 1.38 1.38 1.43 1.53 1.55 1.53 1.46 1.49 1.50 1.45 1.48 1.41 1.42 1.43
2.05 1.73 1.52 1.48 1.38 1.24 1.18 1.31 1.34 1.36 1.23 1.04 0.93 0.89 0.90 0.81 0.77 0.73 0.69 0.71 0.82 0.91 0.98 1.13 1.28 1.50 1.56 1.55 1.51 1.65 1.67 1.70 1.79 1.86 1.68 1.54 1.56 1.67 1.84 1.90 1.78 1.74 1.73 1.72 1.66 1.71 1.60 1.49 1.52
1.47 1.43 1.31 1.12 1.08 1.16 1.10 1.10 1.12 1.12 1.11 0.99 0.86 0.73 0.71 0.69 0.65 0.63 0.60 0.62 0.67 0.75 0.82 0.94 1.09 1.31 1.39 1.44 1.55 1.76 1.91 2.03 2.12 2.16 2.01 1.87 1.83 1.96 2.11 2.01 2.09 2.09 1.96 1.94 2.00 2.05 2.01 1.82 1.66
1.31 1.35 1.19 1.02 0.86 0.91 0.97 1.01 1.01 0.95 0.95 0.83 0.73 0.66 0.58 0.53 0.50 0.45 0.41 0.44 0.48 0.49 0.56 0.68 0.85 0.97 1.12 1.31 1.59 1.81 2.06 2.09 2.15 2.21 2.20 2.12 2.05 2.17 2.19 2.27 2.36 2.38 2.38 2.32 2.20 2.32 2.48 2.20 1.95
1.13 1.17 1.06 1.00 0.88 0.81 0.82 1.02 0.96 0.88 0.82 0.75 0.62 0.53 0.45 0.39 0.34 0.28 0.28 0.35 0.41 0.41 0.45 0.55 0.70 0.86 1.11 1.36 1.73 2.02 2.30 2.39 2.45 2.41 2.41 2.39 2.37 2.39 2.41 2.46 2.51 2.52 2.38 2.38 2.49 2.62 2.97 2.78 2.39
1.11 0.80 0.76 0.79 0.98 1.01 0.83 1.17 0.88 0.73 0.71 0.64 0.55 0.50 0.43 0.36 0.33 0.31 0.29 0.29 0.33 0.38 0.46 0.59 0.81 1.05 1.34 1.67 2.03 2.29 2.59 2.75 2.59 2.58 2.59 2.52 2.40 2.37 2.45 2.44 2.42 2.38 2.33 2.40 2.48 2.53 2.96 3.20 2.90
0.78 0.65 0.78 0.84 0.88 0.84 0.64 0.84 0.75 0.62 0.67 0.59 0.50 0.48 0.50 0.48 0.39 0.37 0.38 0.39 0.43 0.50 0.60 0.79 1.07 1.39 1.71 1.99 2.16 2.41 2.54 2.56 2.51 2.45 2.45 2.35 2.31 2.27 2.28 2.26 2.34 2.34 2.36 2.43 2.62 2.75 3.01 3.07 3.09
0.61 0.74 0.87 0.90 0.97 1.02 0.56 0.68 0.79 0.60 0.56 0.54 0.48 0.43 0.42 0.46 0.42 0.42 0.46 0.54 0.62 0.70 0.87 1.07 1.25 1.55 1.75 1.93 2.08 2.26 2.39 2.40 2.37 2.35 2.40 2.38 2.33 2.22 2.15 2.11 2.17 2.28 2.40 2.45 2.55 2.74 3.00 3.13 3.24
0.62 1.07 1.43 1.43 1.34 0.99 0.48 0.71 0.82 0.61 0.48 0.42 0.43 0.43 0.39 0.42 0.48 0.49 0.62 0.78 0.86 0.91 1.04 1.22 1.30 1.51 1.63 1.70 1.84 2.00 2.03 2.04 2.06 2.05 2.07 1.98 1.92 1.90 1.96 2.04 2.12 2.25 2.33 2.39 2.51 2.65 2.72 2.86 3.13
0.57 0.89 1.43 1.53 1.28 0.93 0.66 0.97 0.88 0.63 0.49 0.45 0.45 0.44 0.47 0.55 0.66 0.76 0.91 1.00 1.08 1.12 1.12 1.19 1.34 1.38 1.40 1.47 1.49 1.58 1.64 1.69 1.74 1.72 1.73 1.78 1.80 1.81 1.75 1.79 1.87 2.09 2.27 2.36 2.45 2.46 2.46 2.53 2.74
0.59 0.65 0.73 1.03 0.94 0.98 0.92 1.11 1.02 0.64 0.51 0.50 0.50 0.50 0.56 0.70 0.91 1.17 1.37 1.47 1.54 1.48 1.32 1.20 1.24 1.26 1.24 1.33 1.38 1.42 1.48 1.51 1.53 1.55 1.47 1.59 1.61 1.60 1.54 1.58 1.61 1.73 1.94 2.18 2.34 2.31 2.25 2.23 2.39
0.49 0.66 0.86 1.25 1.42 1.37 1.21 1.35 1.33 0.88 0.69 0.60 0.63 0.71 0.82 1.02 1.36 1.66 1.93 2.10 2.08 1.86 1.61 1.38 1.23 1.16 1.14 1.19 1.28 1.37 1.40 1.40 1.37 1.40 1.32 1.35 1.44 1.43 1.36 1.37 1.49 1.64 1.74 1.91 2.12 2.20 2.16 2.18 2.28
0.53 0.74 0.94 1.21 1.23 1.53 1.72 1.70 1.38 1.15 0.95 0.88 0.97 1.15 1.33 1.58 1.83 2.02 2.19 2.31 2.12 1.93 1.66 1.39 1.22 1.21 1.24 1.29 1.34 1.35 1.30 1.29 1.27 1.22 1.16 1.20 1.28 1.27 1.25 1.39 1.48 1.56 1.65 1.82 2.06 2.20 2.22 2.17 2.19
0.64 0.92 1.19 1.64 1.51 1.40 1.72 1.81 1.27 1.08 1.05 1.07 1.18 1.27 1.41 1.54 1.57 1.70 1.80 1.81 1.85 1.81 1.63 1.44 1.31 1.29 1.34 1.41 1.46 1.40 1.32 1.27 1.24 1.20 1.11 1.09 1.05 1.03 1.14 1.27 1.30 1.35 1.37 1.57 1.86 2.06 2.11 2.11 2.01